Orbital Elements at Epoch 2459200.5 (2020-Dec-17.0) TDB
Reference: JPL 34 (heliocentric ecliptic J2000)
Element | Value | Uncertainty (1-sigma) | Units |
e | .1563486715252079 | 5.6869e-08 | |
a | 2.349659425201692 | 1.0759e-08 | au |
q | 1.982293295534724 | 1.364e-07 | au |
i | 25.2628616965686 | 5.2966e-06 | deg |
node | 69.06772084594922 | 1.0139e-05 | deg |
peri | 163.7211344439663 | 2.0088e-05 | deg |
M | 315.231749806711 | 2.2537e-05 | deg |
tp | 2459364.096279265215 (2021-May-29.59627927) | 8.3004e-05 | TDB |
period | 1315.545286697537 3.60 | 9.0354e-06 2.474e-08 | d yr |
n | .2736507846899909 | 1.8795e-09 | deg/d |
Q | 2.71702555486866 | 1.2441e-08 | au |
|
| | Orbit Determination Parameters
Additional Information
|